AirNav   Air Wisconsin Up To $57,000 Bonus
 
 473 users online  

AL08 Perdido Winds Airpark
Elberta, Alabama, USA

GOING TO ELBERTA?


FAA INFORMATION EFFECTIVE 26 MARCH 2020

Location

FAA Identifier: AL08
Lat/Long: 30-25-30.0300N 087-32-12.1400W
30-25.500500N 087-32.202333W
30.4250083,-87.5367056
(estimated)
Elevation: 75 ft. / 23 m (estimated)
Variation: 00E (1995)
From city: 3 miles ENE of ELBERTA, AL
Time zone: UTC -5 (UTC -6 during Standard Time)
Zip code: 36530

Airport Operations

Airport use: Private use. Permission required prior to landing
Activation date: 02/2000
Control tower: no
ARTCC: JACKSONVILLE CENTER
FSS: ANNISTON FLIGHT SERVICE STATION
Attendance: UNATNDD
Wind indicator: yes
Segmented circle: no

Airport Communications

WX AWOS-3PT at JKA (11 nm SW): 134.525 (251-968-7581)
WX AWOS-3PT at CQF (18 nm W): 118.425 (251-928-3242)
WX ASOS at PNS (18 nm E): PHONE 850-436-4799

Nearby radio navigation aids

VOR radial/distance  VOR name  Freq  Var
NUNr254/(10.8)SAUFLEY VOR108.8001E
BFMr109/29.1BROOKLEY VORTAC112.8004E

 
NDB name  Hdg/Dist  Freq  Var  ID
PICKENS270/18.632602WPKZ .--. -.- --..

Airport Services

Runway Information

Runway 17/35

Dimensions: 3100 x 100 ft. / 945 x 30 m
Surface: turf
Runway edge markings: DSPLCD THLD MKD WITH 24 INCH CONCRETE DISKS
RUNWAY 17  RUNWAY 35
Traffic pattern: leftleft
Displaced threshold: 858 ft.947 ft.
Markings: basic
Obstructions: 30 ft. trees, 700 ft. from runway35 ft. trees, 100 ft. from runway

Airport Ownership and Management from official FAA records

Ownership: Privately-owned
Owner: BROWN HAWK LANDING, LLC
10100 AILERON AVE
PENSACOLA, FL 32506-0100
Phone 850-455-0971
Manager: ANSELL & BROWN AVIATION LLC
9750 AILERON AVE
PENSACOLA, FL 32506
Phone (850) 453-4181

Airport Operational Statistics

Aircraft based on the field: 1
Single engine airplanes: 1
    

Additional Remarks

PRCHT OPS WILL CMNC AS OF MARCH 2016
FOR CD CTC PENSACOLA APCH AT 850-266-6884 OR 850-266-6885.

Instrument Procedures

There are no published instrument procedures at AL08.

Some nearby airports with instrument procedures:

5R4 - Foley Municipal Airport (8 nm W)
KJKA - Jack Edwards National Airport (11 nm SW)
KNPA - Pensacola Naval Air Station/Forrest Sherman Field (12 nm E)
KCQF - H L Sonny Callahan Airport (18 nm W)
KPNS - Pensacola International Airport (18 nm E)
 
Loc | Ops | Rwys | IFR | FBO | Links
Com | Nav | Svcs | Stats | Notes

Continental Services
AirBoss

 
Area around AL08 (Perdido Winds Airpark)
 
Road maps at: MapQuest Bing Google
 
Aerial photo
No photo
 
Sectional chart

 
Airport distance calculator
Flying to Perdido Winds Airpark? Find the distance to fly.

From to AL08

Sunrise and sunset
Times for 06-Apr-2020
 Local
(UTC-5)
 Zulu
(UTC)
Morning civil twilight06:0911:09
Sunrise06:3311:33
Sunset19:1200:12
Evening civil twilight19:3600:36

Current date and time
Zulu (UTC)  06-Apr-2020 11:32:25
Local (UTC-5)  06-Apr-2020 06:32:25
 
METAR
KJKA 
11nm SW 
061115Z AUTO 00000KT 1 3/4SM BR SCT002 13/13 A3007 RMK AO2 VIS 3/4V5 T01280127
KNPA 
12nm E 
061056Z 00000KT 7SM MIFG SCT180 BKN250 15/13 A3005 RMK AO2 SLP178 T01500133
KCQF 
18nm W 
061115Z AUTO 00000KT 5SM BR CLR 13/13 A3007 RMK AO2
KPNS 
19nm E 
061053Z 03003KT 10SM CLR 16/15 A3004 RMK AO2 SLP175 T01610150
TAF
KNPA 
12nm E 
0607/0707 VRB05KT 6000 BR SCT012 BKN050 QNH3001INS TEMPO 0609/0614 0800 FG BECMG 0616/0618 15012KT 9999 NSW SCT040 BKN120 OVC200 QNH3005INS FM070300 20003KT 6000 BR FEW040 SCT250 QNH3001INS AUTOMATED SENSOR METWATCH 0607 TIL 0611 T15/0610Z T26/0621Z FN00085
KPNS 
19nm E 
060520Z 0606/0706 VRB04KT P6SM FEW250 FM061000 VRB03KT 3SM BR FEW200 FM061400 VRB03KT P6SM FEW200 FM061800 16007KT P6SM FEW250 FM070300 19003KT P6SM FEW200
NOTAMs
Click for the latest NOTAMs
NOTAMs are issued by the DoD/FAA and will open in a separate window not controlled by AirNav.

 

 
 

Would you like to see your business listed on this page?

 If your business provides an interesting product or service to pilots, flight crews, aircraft, or users of the Perdido Winds Airpark, you should consider listing it here.  To start the listing process, click on the button below
 
Add a business
 

Other Pages about Perdido Winds Airpark

Update a link
 
Copyright © AirNav, LLC. All rights reserved. Privacy Policy  Contact